Springfield, IL

9:17 AM CDT on June 27, 2017 (GMT -0500)
Capital

Weather History for KSPI - May, 2014

Change the Weather History Date:

Sunday, May 25, 2014

  Actual Average Record
Temperature  
Mean Temperature 72 °F 66 °F  
Max Temperature 79 °F 77 °F 95 °F (1967)
Min Temperature 65 °F 56 °F 35 °F (1925)
Degree Days  
Heating Degree Days 0 2  
Month to date heating degree days 115 114  
Since 1 July heating degree days 6206 5459  
Cooling Degree Days 7 4  
Month to date cooling degree days 96 58  
Year to date cooling degree days 106 78  
Growing Degree Days 22 (Base 50)    
Moisture  
Dew Point 56 °F    
Average Humidity 58    
Maximum Humidity 68    
Minimum Humidity 48    
Precipitation  
Precipitation T in 0.15 in 2.36 in (1909)
Month to date precipitation 2.15 3.39  
Year to date precipitation 13.68 13.16  
Snow  
Snow 0.00 in 0.00 in 0.00 in ()
Month to date snowfall 0.0 0.0  
Since 1 July snowfall 45.7 20.9  
Snow Depth 0.00 in    
Sea Level Pressure  
Sea Level Pressure 30.08 in    
Wind  
Wind Speed 8 mph (SSE)    
Max Wind Speed 16 mph    
Max Gust Speed 20 mph    
Visibility 10 miles    
Events Rain    
T = Trace of Precipitation, MM = Missing Value Source: NWS Daily Summary

Daily Weather History Graph

Daily Weather History Graph

Search for Another Location

Airport or City:

Trip Planner

Search our weather history database for the weather conditions in past years. The results will help you decide how hot, cold, wet, or windy it might be!

Date:

Astronomy

May. 25, 2014 Rise Set
Actual Time 5:36 AM CDT 8:15 PM CDT
Civil Twilight 5:04 AM CDT 8:47 PM CDT
Nautical Twilight 4:25 AM CDT 9:26 PM CDT
Astronomical Twilight 3:41 AM CDT 10:11 PM CDT
Moon 3:40 AM CDT (5/25) 5:16 PM CDT (5/25)
Length of Visible Light 15h 42m
Length of Day
14h 39m
Waning Crescent, 10% of the Moon is Illuminated
May 25
Waning Crescent
May 28
New
Jun 5
First Quarter
Jun 12
Full
Jun 19
Last Quarter

Hourly Weather History & Observations

Time (CDT) Temp. Dew Point Humidity Pressure Visibility Wind Dir Wind Speed Gust Speed Precip Events Conditions
12:52 AM 69.8 °F 51.8 °F 53% 30.11 in 10.0 mi SE 8.1 mph - N/A   Partly Cloudy
1:52 AM 70.0 °F 52.0 °F 53% 30.08 in 10.0 mi SE 8.1 mph - N/A   Overcast
2:52 AM 66.9 °F 55.0 °F 66% 30.09 in 10.0 mi SSE 5.8 mph - 0.00 in Rain Light Rain
3:52 AM 66.2 °F 55.4 °F 68% 30.09 in 10.0 mi ESE 8.1 mph - N/A   Overcast
4:52 AM 66.0 °F 55.9 °F 70% 30.09 in 10.0 mi Calm Calm - N/A   Overcast
5:52 AM 68.0 °F 53.1 °F 59% 30.10 in 10.0 mi South 8.1 mph - N/A   Overcast
6:52 AM 66.2 °F 53.6 °F 64% 30.12 in 10.0 mi Calm Calm - N/A   Overcast
7:52 AM 68.0 °F 54.0 °F 61% 30.11 in 10.0 mi South 6.9 mph - N/A   Overcast
8:52 AM 69.1 °F 55.0 °F 61% 30.12 in 10.0 mi South 9.2 mph - N/A   Overcast
9:52 AM 69.8 °F 55.4 °F 60% 30.13 in 10.0 mi South 6.9 mph - N/A   Overcast
10:52 AM 71.1 °F 57.0 °F 61% 30.13 in 10.0 mi SSE 6.9 mph - N/A   Overcast
11:52 AM 73.0 °F 57.9 °F 59% 30.13 in 10.0 mi SSE 8.1 mph - N/A   Overcast
12:52 PM 75.9 °F 55.9 °F 50% 30.11 in 10.0 mi SSE 12.7 mph - N/A   Mostly Cloudy
1:52 PM 75.0 °F 57.0 °F 53% 30.09 in 10.0 mi South 8.1 mph - N/A   Mostly Cloudy
2:52 PM 75.9 °F 59.0 °F 56% 30.08 in 10.0 mi SSE 11.5 mph - N/A   Partly Cloudy
3:52 PM 75.9 °F 59.0 °F 56% 30.06 in 10.0 mi South 11.5 mph - N/A   Mostly Cloudy
4:52 PM 77.0 °F 57.0 °F 50% 30.04 in 10.0 mi SSE 13.8 mph - N/A   Clear
5:52 PM 79.0 °F 57.9 °F 48% 30.02 in 10.0 mi South 11.5 mph - N/A   Clear
6:52 PM 75.9 °F 59.0 °F 56% 30.02 in 10.0 mi SSE 10.4 mph - N/A   Clear
7:52 PM 75.0 °F 59.0 °F 57% 30.03 in 10.0 mi SSE 6.9 mph - N/A   Clear
8:52 PM 73.0 °F 57.9 °F 59% 30.03 in 10.0 mi SE 6.9 mph - N/A   Clear
9:52 PM 71.1 °F 57.9 °F 63% 30.04 in 10.0 mi SE 8.1 mph - N/A   Clear
10:52 PM 69.1 °F 57.9 °F 68% 30.04 in 10.0 mi SSE 5.8 mph - N/A   Clear
11:52 PM 68.0 °F 57.9 °F 70% 30.04 in 10.0 mi ESE 5.8 mph - N/A   Clear